GSAT-19

Last updated on Tue Oct 15 2024 00:02:41 GMT+0000 (Coordinated Universal Time)

1 42747U 17031A 24288.48869021 .00000123 00000+0 00000+0 0 9992 2 42747 0.0755 83.7916 0005013 84.9326 78.6183 1.00269594 27017
UTC large
Height (km)
Speed (km/s)
/
Latitude / Longitude
Inclination (degrees)
Orbital Period (minutes)
Azimuth
Elevation
Range (km)
Doppler Factor

Next 0 passes for location: London (51.5072 / 0.1276)

Sorry there are no passes over London.